Weather History for Brownsville, TX

Change the Weather History Date:

Thursday, December 26, 2013

  Actual Average Record
Temperature  
Mean Temperature 61 °F 61 °F  
Max Temperature 67 °F 70 °F 84 °F (1894)
Min Temperature 55 °F 51 °F 28 °F (1983)
Degree Days  
Heating Degree Days 4 6  
Month to date heating degree days 163 133  
Since 1 July heating degree days 271 187  
Cooling Degree Days 0 2  
Month to date cooling degree days 77 69  
Year to date cooling degree days 4197 4014  
Growing Degree Days 10 (Base 50)    
Moisture  
Dew Point 56 °F    
Average Humidity 84    
Maximum Humidity 100    
Minimum Humidity 68    
Precipitation  
Precipitation 0.39 in 0.03 in 1.02 in (1978)
Month to date precipitation 0.50 0.98  
Year to date precipitation 25.99 27.27  
Sea Level Pressure  
Sea Level Pressure 30.27 in    
Wind  
Wind Speed 6 mph (North)    
Max Wind Speed 13 mph    
Max Gust Speed 16 mph    
Visibility 10 miles    
Events Rain    
T = Trace of Precipitation, MM = Missing Value Source: NWS Daily Summary

Daily Weather History Graph

Daily Weather History Graph

Search for Another Location

Airport:

Trip Planner

Search our weather history database for the weather conditions in past years. The results will help you decide how hot, cold, wet, or windy it might be!

Date:

Astronomy

Dec. 26, 2013 Rise Set
Actual Time 7:14 AM CST 5:46 PM CST
Civil Twilight 6:49 AM CST 6:11 PM CST
Nautical Twilight 6:20 AM CST 6:40 PM CST
Astronomical Twilight 5:52 AM CST 7:08 PM CST
Moon 1:09 AM CST (12/26) 1:00 PM CST (12/26)
Length of Visible Light 11h 22m
Length of Day
10h 31m
Last Quarter, 38% of the Moon is Illuminated
Dec 26
Last Quarter
Jan 1
New
Jan 7
First Quarter
Jan 15
Full
Jan 23
Last Quarter

Hourly Weather History & Observations

Time (CST) Temp. Dew Point Humidity Pressure Visibility Wind Dir Wind Speed Gust Speed Precip Events Conditions
12:53 AM 64.0 °F 59.0 °F 84% 30.24 in 10.0 mi NNE 4.6 mph - N/A   Overcast
1:53 AM 64.9 °F 59.0 °F 81% 30.24 in 10.0 mi NE 5.8 mph - N/A   Overcast
2:53 AM 64.0 °F 57.9 °F 80% 30.24 in 10.0 mi NNE 3.5 mph - N/A   Overcast
3:41 AM 62.6 °F 57.2 °F 82% 30.23 in 10.0 mi East 6.9 mph - 0.00 in   Overcast
3:53 AM 63.0 °F 57.0 °F 81% 30.23 in 10.0 mi East 6.9 mph - 0.00 in   Overcast
4:53 AM 63.0 °F 55.9 °F 78% 30.22 in 10.0 mi Calm Calm - N/A   Overcast
5:53 AM 63.0 °F 54.0 °F 72% 30.23 in 10.0 mi NE 6.9 mph - N/A   Overcast
6:53 AM 64.0 °F 55.0 °F 73% 30.25 in 10.0 mi NE 8.1 mph - N/A   Overcast
7:53 AM 64.0 °F 55.0 °F 73% 30.28 in 10.0 mi NNE 3.5 mph - N/A   Overcast
8:53 AM 64.9 °F 55.0 °F 70% 30.29 in 10.0 mi NE 4.6 mph - N/A   Overcast
9:53 AM 62.1 °F 57.0 °F 84% 30.30 in 10.0 mi West 3.5 mph - N/A   Overcast
10:53 AM 62.1 °F 57.0 °F 84% 30.31 in 10.0 mi West 9.2 mph - N/A   Overcast
11:53 AM 63.0 °F 59.0 °F 87% 30.29 in 10.0 mi NW 6.9 mph - N/A   Overcast
12:53 PM 66.9 °F 55.9 °F 68% 30.25 in 10.0 mi NE 8.1 mph - N/A   Overcast
1:53 PM 66.0 °F 55.0 °F 68% 30.25 in 10.0 mi ENE 8.1 mph - 0.00 in Rain Light Rain
2:53 PM 63.0 °F 57.0 °F 81% 30.26 in 10.0 mi ENE 4.6 mph - 0.02 in Rain Light Rain
3:53 PM 62.1 °F 57.9 °F 86% 30.25 in 10.0 mi NNE 6.9 mph - 0.07 in Rain Light Rain
4:53 PM 61.0 °F 57.0 °F 87% 30.25 in 10.0 mi North 4.6 mph - 0.03 in Rain Light Rain
5:34 PM 60.8 °F 57.2 °F 88% 30.26 in 9.0 mi North 6.9 mph - 0.01 in Rain Light Rain
5:53 PM 59.0 °F 57.0 °F 93% 30.25 in 9.0 mi North 6.9 mph - 0.03 in Rain Light Rain
6:53 PM 59.0 °F 57.9 °F 96% 30.27 in 10.0 mi NNW 3.5 mph - 0.01 in Rain Light Rain
7:53 PM 59.0 °F 57.0 °F 93% 30.28 in 10.0 mi NNW 8.1 mph - 0.02 in Rain Light Rain
8:03 PM 59.0 °F 57.2 °F 94% 30.29 in 8.0 mi NNW 6.9 mph - 0.00 in Rain Light Rain
8:23 PM 57.2 °F 57.2 °F 100% 30.29 in 8.0 mi NNW 6.9 mph - 0.01 in Rain Light Rain
8:53 PM 57.9 °F 57.0 °F 97% 30.28 in 8.0 mi NNW 5.8 mph - 0.01 in Rain Light Rain
9:29 PM 57.2 °F 55.4 °F 94% 30.30 in 10.0 mi NW 8.1 mph - 0.01 in Rain Light Rain
9:53 PM 57.0 °F 55.9 °F 96% 30.29 in 9.0 mi NNW 6.9 mph - 0.02 in Rain Rain
10:36 PM 57.2 °F 55.4 °F 94% 30.30 in 10.0 mi NNW 9.2 mph - 0.06 in Rain Light Rain
10:53 PM 55.9 °F 54.0 °F 93% 30.30 in 9.0 mi NW 9.2 mph - 0.08 in Rain Rain
11:53 PM 55.0 °F 54.0 °F 96% 30.31 in 7.0 mi NW 11.5 mph - 0.09 in Rain Rain